Location: Sperry Observatory
(40.6664°N, 74.3236°W)
Time: 01:59:55
(UTC-05:00)

UOSAT-12 - Visible Passes

Search period start: 22 February 2018 00:00
Search period end: 04 March 2018 00:00
Orbit: 593 x 661 km, 64.6° (Epoch: 22 February)

Date Brightness Start Highest point End Pass type
(mag) Time Alt. Az. Time Alt. Az. Time Alt. Az.
22 Feb 9.5 03:46:24 19° NNE 03:47:21 20° NE 03:50:46 10° E visible
22 Feb 7.2 05:23:44 13° NW 05:27:51 61° WSW 05:32:26 10° SSE visible
22 Feb 8.5 19:33:31 10° S 19:35:37 25° S 19:35:37 25° S visible
23 Feb 8.6 04:06:32 32° NNE 04:07:27 36° NE 04:11:45 10° ESE visible
23 Feb 8.1 05:43:54 12° WNW 05:47:25 28° WSW 05:51:21 10° S visible
23 Feb 7.5 19:52:54 10° SSW 19:56:35 57° SW 19:56:35 57° SW visible
24 Feb 7.3 04:26:55 67° NNE 04:27:22 73° NE 04:32:01 10° SE visible
24 Feb 9.0 06:04:50 10° W 06:06:49 13° WSW 06:08:48 10° SW visible
24 Feb 8.3 18:33:56 10° SSE 18:37:32 23° ESE 18:40:05 15° ENE visible
24 Feb 8.3 20:13:00 10° WSW 20:17:22 41° NW 20:17:28 41° NW visible
25 Feb 10.2 03:10:09 11° E 03:10:09 11° E 03:10:21 10° E visible
25 Feb 7.4 04:47:32 49° SW 04:47:32 49° SW 04:51:35 10° SSE visible
25 Feb 7.3 18:52:37 10° SSW 18:57:04 50° ESE 19:00:47 15° NE visible
25 Feb 9.3 20:33:48 10° W 20:37:26 22° NW 20:38:10 21° NNW visible
26 Feb 10.0 03:30:56 11° ESE 03:30:56 11° ESE 03:31:10 10° ESE visible
26 Feb 8.7 05:08:20 19° SW 05:08:20 19° SW 05:10:17 10° SSW visible
26 Feb 7.3 19:12:11 10° SW 19:16:46 74° WNW 19:21:17 11° NNE visible
26 Feb 10.0 20:55:35 10° WNW 20:57:42 13° NW 20:58:38 12° NNW visible
27 Feb 8.6 19:32:24 10° WSW 19:36:40 36° NW 19:41:02 10° NNE visible
28 Feb 7.2 18:11:45 10° SSW 18:16:17 60° ESE 18:20:55 10° NE visible
28 Feb 9.6 19:53:22 10° W 19:56:46 20° NW 20:00:14 10° N visible
01 Mar 7.7 18:31:27 10° SW 18:36:02 63° NW 18:40:42 10° NNE visible
01 Mar 10.1 20:15:32 10° NW 20:17:05 11° NW 20:18:39 10° NNW visible
02 Mar 8.9 18:51:50 10° WSW 18:55:58 31° NW 19:00:11 10° NNE visible
03 Mar 9.8 19:12:59 10° W 19:16:07 18° NW 19:19:18 10° N visible
